This is the latest recevied weather packets stored in our database for station/object K9JWM. If no packets are shown the sender has not sent any weather packets the latest 10 day(s).
| Time | Temp. | Humidity | Pressure | Rain* | Wind** | Luminosity | Snow |
|---|---|---|---|---|---|---|---|
| 1777976229 | 1.67° C | 74% | 1004.1 hPa | 0 mm | - | - | - |
| 1777975330 | 1.67° C | 72% | 1004.1 hPa | 0 mm | - | - | - |
| 1777974430 | 2.22° C | 72% | 1003.8 hPa | 0 mm | - | - | - |
| 1777973529 | 2.22° C | 71% | 1003.7 hPa | 0 mm | - | - | - |
| 1777972629 | 2.22° C | 68% | 1003.5 hPa | 0 mm | - | - | - |
| 1777971730 | 2.78° C | 68% | 1003.3 hPa | 0 mm | - | - | - |
| 1777970829 | 2.78° C | 68% | 1003 hPa | 0 mm | - | - | - |
| 1777969928 | 2.78° C | 67% | 1003.1 hPa | 0 mm | - | - | - |
| 1777969030 | 3.33° C | 67% | 1002.8 hPa | 0 mm | - | - | - |
| 1777968130 | 3.33° C | 63% | 1002.7 hPa | 0 mm | - | - | - |
| 1777967229 | 3.89° C | 62% | 1002.7 hPa | 0 mm | - | - | - |
| 1777966329 | 3.89° C | 62% | 1002.7 hPa | 0 mm | - | - | - |
| 1777965429 | 3.89° C | 61% | 1002.7 hPa | 0 mm | - | - | - |
| 1777964530 | 3.89° C | 60% | 1002.7 hPa | 0 mm | - | - | - |
| 1777963629 | 4.44° C | 62% | 1002.8 hPa | 0 mm | - | - | - |
| 1777962729 | 4.44° C | 60% | 1002.7 hPa | 0 mm | - | - | - |
| 1777961830 | 4.44° C | 58% | 1002.7 hPa | 0 mm | - | - | - |
| 1777960929 | 5° C | 59% | 1002.6 hPa | 0 mm | - | - | - |
| 1777960029 | 5° C | 58% | 1002.5 hPa | 0 mm | - | - | - |
| 1777959128 | 5° C | 57% | 1002.5 hPa | 0 mm | - | - | - |
| 1777958229 | 5° C | 58% | 1002.4 hPa | 0 mm | - | - | - |
| 1777957330 | 5° C | 60% | 1002.3 hPa | 0 mm | - | - | - |
| 1777956429 | 4.44° C | 58% | 1002.4 hPa | 0 mm | - | - | - |
| 1777955529 | 5° C | 60% | 1002.4 hPa | 0 mm | - | - | - |
| 1777954629 | 5° C | 58% | 1002.4 hPa | 0 mm | - | - | - |
* Rain latest hour (hover to see other rain measurements)
** Current wind speed in m/s (hover to see current wind gust speed)